SCP
0 0 0 0 0 0 0 0 0 0 0 0 0 0 0 0 0 0 0 0 0 0 0 0 0 0 0 0 0 0 0 0 0 0 0 0 0 0 0 0 0 0 0
0 0 0 0 0 0 0 0 0 0 0 0 0 0 0 0 0 0 0 0 0 0 0 0 0 0 0 0 0 0 0 0 0 0 0 0 0 0 0 0 0 0 0
0 0 0 0 0 0 0 0 0 0 0 0 0 0 0 0 0 0 0 0 0 0 0 0 0 0 0 0 0 0 0 0 0 0 0 0 0 0 0 0 0 0 0
0 0 0 0 0 0 0 0 0 0 0 0 0 0 0 0 0 0 0 0 0 0 0 0 0 0 0 0 0 0 0 0 0 0 0 0 0 0 0 0 0 0 0
0 0 0 0 0 0 0 0 0 0 0 0 0 0 0 0 0 0 -0 -0 0 0 0 0 0 0 0 0 0 0 0 0 0 0 0 0 0 0 0 0 0 0 0
0 0 0 0 0 0 0 0 0 0 0 0 0 0 0 0 -0 -0 0 0 0 0 0 0 0 0 0 0 0 0 0 0 0 0 0 0 0 0 0 0 0 0 0
0 0 0 0 0 0 0 0 0 0 0 0 0 0 0 0 -0 -0 0 0 0 0 0 0 0 0 0 0 0 0 0 0 0 0 0 0 0 0 0 0 0 0 0
0 0 0 0 0 0 0 0 0 0 0 0 0 0 0 0 -0 -0 0 0 0 0 0 0 0 0 0 0 0 0 0 0 0 0 0 0 0 0 0 0 0 0 0
0 0 0 0 0 0 0 0 0 0 0 0 0 0 0 0 -0 0 -0 0 0 0 0 0 0 0 0 0 0 0 0 0 0 0 0 0 0 0 0 0 0 0 0
0 0 0 0 0 0 0 0 0 0 0 0 0 0 0 0 0 0 0 0 0 0 0 0 0 0 0 0 0 0 0 0 0 0 0 0 0 0 0 0 0 0 0
0 0 0 0 0 0 0 0 0 0 0 0 0 0 0 0 0 0 0 0 0 0 0 0 0 0 0 0 0 0 0 0 0 0 0 0 0 0 0 0 0 0 0
0 0 0 0 0 0 0 0 0 0 0 0 0 0 0 0 0 0 0 0 0 0 0 0 0 0 0 0 0 0 0 0 0 0 0 0 0 0 0 0 0 0 0
0 0 0 0 0 0 0 0 0 0 0 0 0 0 0 0 0 0 0 0 0 0 0 0 0 0 0 0 0 0 0 0 0 0 0 0 0 0 0 0 0 0 0
0 0 0 0 0 0 0 0 0 0 0 0 0 0 0 0 0 0 0 0 0 0 0 0 0 0 0 0 0 0 0 0 0 0 0 0 0 0 0 0 0 0 0
0 0 0 0 0 0 0 0 0 0 0 0 0 0 0 0 0 0 0 0 0 0 0 0 0 0 0 0 0 0 0 0 0 0 0 0 0 0 0 0 0 0 0
0 0 0 0 0 0 0 0 0 0 0 0 0 0 0 0 0 0 0 0 0 0 0 0 0 0 0 0 0 0 0 0 0 0 0 0 0 0 0 0 0 0 0
0 0 0 0 0 0 0 0 0 0 0 0 0 0 0 0 0 0 0 0 0 0 0 0 0 0 0 0 0 0 0 0 0 0 0 0 0 0 0 0 0 0 0
0 0 0 0 0 0 0 0 0 0 0 0 0 0 0 0 0 0 0 0 0 0 0 0 0 0 0 0 0 0 0 0 0 0 0 0 0 0 0 0 0 0 0
0 0 0 0 0 0 0 0 0 0 0 0 0 0 0 0 0 0 0 0 0 0 0 0 0 0 0 0 0 0 0 0 0 0 0 0 0 0 0 0 0 0 0
0 0 0 0 0 0 0 0 0 0 0 0 0 0 0 0 0 0 0 0 0 0 0 0 0 0 0 0 0 0 0 0 0 0 0 0 0 0 0 0 0 0 0
0 0 0 0 0 0 0 0 0 0 0 0 0 0 0 0 0 0 0 0 0 0 0 0 0 0 0 0 0 0 0 0 0 0 0 0 0 0 0 0 0 0 0
0 0 0 0 0 0 0 0 0 0 0 0 0 0 0 0 0 0 0 0 0 0 0 0 0 0 0 0 0 0 0 0 0 0 0 0 0 0 0 0 0 0 0
0 0 0 0 0 0 0 0 0 0 0 0 0 0 0 0 0 0 0 0 0 0 0 0 0 0 0 0 0 0 0 0 0 0 0 0 0 0 0 0 0 0 0
0 0 0 0 0 0 0 0 0 0 0 0 0 0 0 0 0 0 0 0 0 0 0 0 0 0 0 0 0 0 0 0 0 0 0 0 0 0 0 0 0 0 0
0 0 0 0 0 0 0 0 0 0 0 0 0 0 0 0 0 0 0 0 0 0 0 0 0 0 0 0 0 0 0 0 0 0 0 0 0 0 0 0 0 0 0
0 0 0 0 0 0 0 0 0 0 0 0 0 0 0 0 0 0 0 0 0 0 0 0 0 0 0 0 0 0 0 0 0 0 0 0 0 0 0 0 -0 0 0
Wind_Speed_500mb
48 49 50 50 52 51 57 64 59 55 46 37 42 52 42 39 39 50 60 65 72 71 67 71 76 80 66 67 50 44 41 37 25 27 28 25 24 22 19 20 20 24 38
50 52 51 51 55 65 62 51 45 38 33 29 29 33 35 33 37 41 46 47 47 54 58 62 81 81 75 61 53 51 44 42 28 35 29 28 25 22 18 18 17 21 52
55 55 55 55 59 63 46 43 39 36 32 28 29 30 33 31 32 34 37 40 45 50 52 61 70 77 78 68 57 58 49 43 30 31 32 29 26 22 20 21 17 35 62
57 57 57 59 69 47 42 39 37 36 35 33 31 28 28 28 29 32 34 38 41 46 51 51 60 72 75 73 68 57 54 43 37 32 34 31 24 23 21 20 21 47 64
59 58 57 60 50 42 40 38 36 35 32 29 28 24 21 22 24 28 32 35 41 43 45 55 64 67 84 71 70 67 57 48 50 40 35 33 29 25 25 25 31 54 60
58 55 61 56 43 41 39 39 37 35 32 29 24 21 12 11 21 26 34 40 41 42 49 51 53 60 83 76 64 65 58 50 50 43 40 36 32 28 28 31 55 56 63
58 61 59 46 43 41 40 39 39 39 40 36 32 29 21 22 27 32 39 43 45 46 51 50 58 61 55 62 66 70 64 55 50 44 39 35 32 27 31 40 56 55 69
58 62 56 46 44 42 41 43 42 43 44 40 37 36 34 33 37 39 43 46 46 44 50 56 60 65 69 59 71 65 59 53 51 40 34 34 29 26 29 45 48 66 61
64 62 51 46 44 40 41 42 42 50 46 49 46 44 42 43 43 47 49 51 50 51 56 54 64 64 59 57 60 60 60 49 63 49 47 42 40 37 52 44 61 74 78
64 58 46 44 40 39 40 42 45 50 48 45 52 50 48 48 47 49 47 50 53 59 49 56 62 57 59 63 55 57 54 47 52 46 42 35 40 45 39 65 76 82 93
66 52 44 42 41 41 40 41 44 53 47 46 53 53 50 49 50 52 50 52 61 61 58 57 58 58 65 58 53 52 51 42 53 38 41 39 45 52 43 68 78 85 89
63 51 46 46 44 42 42 41 48 56 49 44 48 51 49 48 50 52 53 49 48 50 52 52 55 63 65 62 51 60 60 51 52 52 47 55 50 60 53 60 73 86 89
59 58 45 49 49 46 47 48 52 58 52 45 48 48 51 46 46 47 51 51 49 50 50 53 66 66 66 65 64 61 53 55 47 50 61 50 54 50 53 63 77 86 81
58 65 50 48 56 53 54 53 57 61 57 48 54 59 54 51 49 49 50 53 55 60 58 65 61 54 46 64 60 54 50 49 47 57 52 51 54 48 58 64 78 68 76
60 60 59 48 53 56 60 60 57 57 61 60 50 50 59 60 56 60 61 57 60 62 63 54 48 45 58 62 52 44 46 49 57 44 53 54 55 52 54 63 66 71 80
72 56 62 50 52 53 56 54 53 51 54 64 69 72 73 71 65 62 64 64 65 59 59 60 63 61 60 46 45 49 47 48 52 48 49 53 50 48 60 73 79 76 80
73 70 57 56 50 50 52 53 52 50 49 54 56 59 60 60 60 59 61 60 60 66 66 61 57 47 47 50 47 45 49 48 46 52 53 55 50 52 62 66 67 66 75
64 73 73 63 54 50 49 49 49 49 50 49 46 46 48 48 48 49 54 62 60 54 52 55 51 43 45 51 45 50 48 54 47 54 47 49 50 58 62 64 65 62 68
59 65 73 75 68 61 56 52 50 48 47 46 43 41 39 38 40 44 43 52 56 49 48 48 40 42 50 55 48 45 53 52 48 46 46 51 52 61 62 62 53 53 54
52 55 63 73 76 69 75 74 65 58 52 49 47 44 40 36 39 41 44 45 44 43 43 35 35 48 51 49 43 46 46 44 48 47 42 48 53 55 54 53 48 48 57
44 49 54 60 70 70 60 65 68 70 71 67 61 49 48 49 49 48 45 46 47 48 48 45 46 44 44 44 42 39 41 43 45 47 52 50 48 52 46 42 55 53 40
38 41 45 51 54 62 68 66 61 57 58 64 66 60 62 59 54 53 54 52 48 47 42 43 39 40 43 42 41 40 39 44 48 47 48 47 45 42 36 43 39 30 36
32 34 38 41 43 48 53 61 64 65 62 56 49 49 54 64 69 71 68 65 60 61 64 62 58 52 50 49 51 51 48 50 47 45 46 45 43 37 36 38 36 34 38
25 28 30 32 34 37 41 45 51 55 56 59 62 61 54 45 47 50 52 54 55 53 54 53 56 60 60 59 55 51 47 46 47 43 39 38 42 33 33 34 35 31 31
17 19 22 24 26 27 29 32 35 39 44 47 51 54 55 55 51 50 51 49 46 46 46 46 47 47 45 45 43 43 42 42 41 38 34 29 27 31 32 32 33 33 31
11 12 12 14 17 20 21 22 23 26 29 33 37 40 43 45 47 48 49 48 48 47 46 45 43 44 45 44 43 40 40 38 36 34 30 29 31 35 34 33 34 33 32
Wind_Direction_500mb
326 324 321 320 321 319 311 305 300 303 301 281 265 268 274 260 245 239 239 235 233 237 232 226 219 216 215 204 203 201 199 197 198 181 191 181 176 174 190 182 189 177 181
329 328 327 326 325 324 323 332 331 324 321 304 293 275 274 264 252 245 240 236 226 220 215 214 216 217 214 198 198 195 193 190 186 182 179 183 179 179 181 180 180 181 175
334 332 330 330 331 328 329 329 331 330 326 313 299 286 274 261 246 237 229 221 218 216 215 215 211 199 199 194 195 187 188 183 186 181 178 179 183 177 175 175 172 180 171
339 336 336 336 328 336 337 341 341 339 335 325 315 304 285 262 243 229 218 212 206 203 205 205 203 201 201 192 187 183 183 179 183 175 172 171 176 175 163 171 166 167 167
342 344 341 332 343 351 357 355 353 352 345 341 327 314 289 255 233 210 199 193 192 191 192 193 185 189 185 190 184 181 177 177 177 174 173 173 172 172 161 158 168 160 167
347 349 343 351 2 7 8 2 6 9 11 2 3 2 334 212 183 181 175 173 175 173 172 176 175 184 178 181 179 176 173 172 173 172 168 171 168 166 159 160 159 164 158
354 354 355 8 13 16 15 21 30 33 25 24 27 33 58 119 141 149 159 159 159 160 160 162 162 164 167 171 177 167 164 164 167 165 164 166 160 167 159 166 158 160 161
359 359 7 18 19 26 33 37 41 39 34 38 45 57 81 101 119 133 142 146 148 147 151 159 162 157 158 150 153 157 162 159 154 155 164 156 154 154 166 154 159 160 161
4 5 17 25 27 37 43 45 45 42 46 50 60 72 84 99 114 123 129 133 135 137 144 147 147 159 158 154 153 157 159 160 160 164 167 157 153 156 162 149 156 157 151
4 19 29 35 40 46 49 53 52 58 56 61 68 75 86 98 109 120 121 125 128 133 133 146 147 145 151 146 154 156 155 160 163 156 148 148 151 151 149 159 156 170 163
6 28 42 47 52 53 55 61 61 67 66 70 75 78 87 98 106 111 117 123 123 127 133 138 145 145 140 140 145 152 156 149 153 146 141 146 151 155 149 156 162 168 161
8 36 53 58 63 62 59 62 67 69 67 73 77 82 87 98 107 114 118 120 124 124 128 135 142 142 138 138 150 159 150 147 143 140 146 147 141 152 156 161 166 156 163
17 39 56 65 63 63 65 60 70 66 70 73 81 83 86 93 106 114 115 119 119 119 126 135 139 140 144 146 144 142 144 140 139 145 143 143 148 151 152 163 159 171 167
25 34 51 66 67 63 65 66 62 72 76 77 77 85 90 91 95 100 106 113 121 123 125 129 127 125 133 138 141 142 141 142 142 146 141 141 147 147 155 157 165 161 169
28 29 48 60 65 67 60 58 63 64 72 82 84 87 88 91 97 103 103 103 111 116 114 114 118 126 135 138 135 135 143 142 146 141 145 148 143 143 153 163 168 172 162
33 32 41 57 63 67 72 71 67 73 78 83 85 89 93 91 93 97 104 107 111 115 121 125 129 131 133 128 129 133 136 142 144 140 142 145 143 145 152 159 164 164 165
37 40 38 48 58 69 73 77 78 76 78 80 82 84 86 92 98 99 105 109 115 122 119 122 126 122 115 125 135 133 136 140 134 140 140 146 150 152 153 152 160 164 161
41 44 43 44 57 61 70 79 82 82 80 82 86 88 88 90 91 97 109 119 122 116 114 116 112 110 118 129 130 134 134 141 141 147 145 150 157 155 159 162 165 167 167
47 46 48 48 55 62 64 69 75 79 80 83 86 91 95 98 103 107 115 126 130 122 120 119 108 109 126 135 135 136 137 140 147 149 147 155 149 154 159 165 171 169 171
52 51 52 55 58 69 69 71 74 78 81 85 87 89 94 104 110 114 117 123 129 130 133 127 114 124 134 140 140 141 142 143 149 155 154 154 155 156 156 157 162 166 161
55 56 57 56 61 66 71 72 73 70 75 81 83 90 97 101 103 103 105 105 107 108 110 115 120 124 126 126 127 130 136 142 148 152 157 161 155 155 154 164 167 164 158
58 60 62 63 61 64 68 71 76 80 82 80 84 84 86 91 95 98 100 103 105 109 112 117 117 118 121 120 120 127 130 135 141 143 146 147 148 149 154 154 143 150 166
60 61 64 66 68 69 68 72 74 77 82 86 87 88 87 93 95 96 98 102 103 103 99 98 103 113 121 123 113 109 114 115 124 127 131 134 139 143 143 142 142 138 145
58 64 66 67 70 72 74 74 77 80 81 84 86 88 95 97 95 94 96 100 104 106 106 103 102 101 103 108 108 108 111 119 120 125 130 131 137 137 135 148 159 167 169
41 53 65 73 74 75 78 80 82 83 85 87 89 89 91 93 95 95 96 99 99 103 108 114 120 120 119 116 117 120 120 121 126 131 134 139 147 149 155 160 160 160 160
28 38 50 63 72 81 85 86 87 88 90 93 93 94 96 97 96 97 98 102 107 111 114 115 115 120 125 124 124 124 127 131 137 138 142 147 150 146 146 147 148 149 151
Wind_Speed_850mb
48 49 50 50 52 51 57 64 59 55 46 37 42 52 42 39 39 50 60 65 72 71 67 71 76 80 66 67 50 44 41 37 25 27 28 25 24 22 19 20 20 24 38
50 52 51 51 55 65 62 51 45 38 33 29 29 33 35 33 37 41 46 47 47 54 58 62 81 81 75 61 53 51 44 42 28 35 29 28 25 22 18 18 17 21 52
55 55 55 55 59 63 46 43 39 36 32 28 29 30 33 31 32 34 37 40 45 50 52 61 70 77 78 68 57 58 49 43 30 31 32 29 26 22 20 21 17 35 62
57 57 57 59 69 47 42 39 37 36 35 33 31 28 28 28 29 32 34 38 41 46 51 51 60 72 75 73 68 57 54 43 37 32 34 31 24 23 21 20 21 47 64
59 58 57 60 50 42 40 38 36 35 32 29 28 24 21 22 24 28 32 35 41 43 45 55 64 67 84 71 70 67 57 48 50 40 35 33 29 25 25 25 31 54 60
58 55 61 56 43 41 39 39 37 35 32 29 24 21 12 11 21 26 34 40 41 42 49 51 53 60 83 76 64 65 58 50 50 43 40 36 32 28 28 31 55 56 63
58 61 59 46 43 41 40 39 39 39 40 36 32 29 21 22 27 32 39 43 45 46 51 50 58 61 55 62 66 70 64 55 50 44 39 35 32 27 31 40 56 55 69
58 62 56 46 44 42 41 43 42 43 44 40 37 36 34 33 37 39 43 46 46 44 50 56 60 65 69 59 71 65 59 53 51 40 34 34 29 26 29 45 48 66 61
64 62 51 46 44 40 41 42 42 50 46 49 46 44 42 43 43 47 49 51 50 51 56 54 64 64 59 57 60 60 60 49 63 49 47 42 40 37 52 44 61 74 78
64 58 46 44 40 39 40 42 45 50 48 45 52 50 48 48 47 49 47 50 53 59 49 56 62 57 59 63 55 57 54 47 52 46 42 35 40 45 39 65 76 82 93
66 52 44 42 41 41 40 41 44 53 47 46 53 53 50 49 50 52 50 52 61 61 58 57 58 58 65 58 53 52 51 42 53 38 41 39 45 52 43 68 78 85 89
63 51 46 46 44 42 42 41 48 56 49 44 48 51 49 48 50 52 53 49 48 50 52 52 55 63 65 62 51 60 60 51 52 52 47 55 50 60 53 60 73 86 89
59 58 45 49 49 46 47 48 52 58 52 45 48 48 51 46 46 47 51 51 49 50 50 53 66 66 66 65 64 61 53 55 47 50 61 50 54 50 53 63 77 86 81
58 65 50 48 56 53 54 53 57 61 57 48 54 59 54 51 49 49 50 53 55 60 58 65 61 54 46 64 60 54 50 49 47 57 52 51 54 48 58 64 78 68 76
60 60 59 48 53 56 60 60 57 57 61 60 50 50 59 60 56 60 61 57 60 62 63 54 48 45 58 62 52 44 46 49 57 44 53 54 55 52 54 63 66 71 80
72 56 62 50 52 53 56 54 53 51 54 64 69 72 73 71 65 62 64 64 65 59 59 60 63 61 60 46 45 49 47 48 52 48 49 53 50 48 60 73 79 76 80
73 70 57 56 50 50 52 53 52 50 49 54 56 59 60 60 60 59 61 60 60 66 66 61 57 47 47 50 47 45 49 48 46 52 53 55 50 52 62 66 67 66 75
64 73 73 63 54 50 49 49 49 49 50 49 46 46 48 48 48 49 54 62 60 54 52 55 51 43 45 51 45 50 48 54 47 54 47 49 50 58 62 64 65 62 68
59 65 73 75 68 61 56 52 50 48 47 46 43 41 39 38 40 44 43 52 56 49 48 48 40 42 50 55 48 45 53 52 48 46 46 51 52 61 62 62 53 53 54
52 55 63 73 76 69 75 74 65 58 52 49 47 44 40 36 39 41 44 45 44 43 43 35 35 48 51 49 43 46 46 44 48 47 42 48 53 55 54 53 48 48 57
44 49 54 60 70 70 60 65 68 70 71 67 61 49 48 49 49 48 45 46 47 48 48 45 46 44 44 44 42 39 41 43 45 47 52 50 48 52 46 42 55 53 40
38 41 45 51 54 62 68 66 61 57 58 64 66 60 62 59 54 53 54 52 48 47 42 43 39 40 43 42 41 40 39 44 48 47 48 47 45 42 36 43 39 30 36
32 34 38 41 43 48 53 61 64 65 62 56 49 49 54 64 69 71 68 65 60 61 64 62 58 52 50 49 51 51 48 50 47 45 46 45 43 37 36 38 36 34 38
25 28 30 32 34 37 41 45 51 55 56 59 62 61 54 45 47 50 52 54 55 53 54 53 56 60 60 59 55 51 47 46 47 43 39 38 42 33 33 34 35 31 31
17 19 22 24 26 27 29 32 35 39 44 47 51 54 55 55 51 50 51 49 46 46 46 46 47 47 45 45 43 43 42 42 41 38 34 29 27 31 32 32 33 33 31
11 12 12 14 17 20 21 22 23 26 29 33 37 40 43 45 47 48 49 48 48 47 46 45 43 44 45 44 43 40 40 38 36 34 30 29 31 35 34 33 34 33 32
Wind_Direction_850mb
326 324 321 320 321 319 311 305 300 303 301 281 265 268 274 260 245 239 239 235 233 237 232 226 219 216 215 204 203 201 199 197 198 181 191 181 176 174 190 182 189 177 181
329 328 327 326 325 324 323 332 331 324 321 304 293 275 274 264 252 245 240 236 226 220 215 214 216 217 214 198 198 195 193 190 186 182 179 183 179 179 181 180 180 181 175
334 332 330 330 331 328 329 329 331 330 326 313 299 286 274 261 246 237 229 221 218 216 215 215 211 199 199 194 195 187 188 183 186 181 178 179 183 177 175 175 172 180 171
339 336 336 336 328 336 337 341 341 339 335 325 315 304 285 262 243 229 218 212 206 203 205 205 203 201 201 192 187 183 183 179 183 175 172 171 176 175 163 171 166 167 167
342 344 341 332 343 351 357 355 353 352 345 341 327 314 289 255 233 210 199 193 192 191 192 193 185 189 185 190 184 181 177 177 177 174 173 173 172 172 161 158 168 160 167
347 349 343 351 2 7 8 2 6 9 11 2 3 2 334 212 183 181 175 173 175 173 172 176 175 184 178 181 179 176 173 172 173 172 168 171 168 166 159 160 159 164 158
354 354 355 8 13 16 15 21 30 33 25 24 27 33 58 119 141 149 159 159 159 160 160 162 162 164 167 171 177 167 164 164 167 165 164 166 160 167 159 166 158 160 161
359 359 7 18 19 26 33 37 41 39 34 38 45 57 81 101 119 133 142 146 148 147 151 159 162 157 158 150 153 157 162 159 154 155 164 156 154 154 166 154 159 160 161
4 5 17 25 27 37 43 45 45 42 46 50 60 72 84 99 114 123 129 133 135 137 144 147 147 159 158 154 153 157 159 160 160 164 167 157 153 156 162 149 156 157 151
4 19 29 35 40 46 49 53 52 58 56 61 68 75 86 98 109 120 121 125 128 133 133 146 147 145 151 146 154 156 155 160 163 156 148 148 151 151 149 159 156 170 163
6 28 42 47 52 53 55 61 61 67 66 70 75 78 87 98 106 111 117 123 123 127 133 138 145 145 140 140 145 152 156 149 153 146 141 146 151 155 149 156 162 168 161
8 36 53 58 63 62 59 62 67 69 67 73 77 82 87 98 107 114 118 120 124 124 128 135 142 142 138 138 150 159 150 147 143 140 146 147 141 152 156 161 166 156 163
17 39 56 65 63 63 65 60 70 66 70 73 81 83 86 93 106 114 115 119 119 119 126 135 139 140 144 146 144 142 144 140 139 145 143 143 148 151 152 163 159 171 167
25 34 51 66 67 63 65 66 62 72 76 77 77 85 90 91 95 100 106 113 121 123 125 129 127 125 133 138 141 142 141 142 142 146 141 141 147 147 155 157 165 161 169
28 29 48 60 65 67 60 58 63 64 72 82 84 87 88 91 97 103 103 103 111 116 114 114 118 126 135 138 135 135 143 142 146 141 145 148 143 143 153 163 168 172 162
33 32 41 57 63 67 72 71 67 73 78 83 85 89 93 91 93 97 104 107 111 115 121 125 129 131 133 128 129 133 136 142 144 140 142 145 143 145 152 159 164 164 165
37 40 38 48 58 69 73 77 78 76 78 80 82 84 86 92 98 99 105 109 115 122 119 122 126 122 115 125 135 133 136 140 134 140 140 146 150 152 153 152 160 164 161
41 44 43 44 57 61 70 79 82 82 80 82 86 88 88 90 91 97 109 119 122 116 114 116 112 110 118 129 130 134 134 141 141 147 145 150 157 155 159 162 165 167 167
47 46 48 48 55 62 64 69 75 79 80 83 86 91 95 98 103 107 115 126 130 122 120 119 108 109 126 135 135 136 137 140 147 149 147 155 149 154 159 165 171 169 171
52 51 52 55 58 69 69 71 74 78 81 85 87 89 94 104 110 114 117 123 129 130 133 127 114 124 134 140 140 141 142 143 149 155 154 154 155 156 156 157 162 166 161
55 56 57 56 61 66 71 72 73 70 75 81 83 90 97 101 103 103 105 105 107 108 110 115 120 124 126 126 127 130 136 142 148 152 157 161 155 155 154 164 167 164 158
58 60 62 63 61 64 68 71 76 80 82 80 84 84 86 91 95 98 100 103 105 109 112 117 117 118 121 120 120 127 130 135 141 143 146 147 148 149 154 154 143 150 166
60 61 64 66 68 69 68 72 74 77 82 86 87 88 87 93 95 96 98 102 103 103 99 98 103 113 121 123 113 109 114 115 124 127 131 134 139 143 143 142 142 138 145
58 64 66 67 70 72 74 74 77 80 81 84 86 88 95 97 95 94 96 100 104 106 106 103 102 101 103 108 108 108 111 119 120 125 130 131 137 137 135 148 159 167 169
41 53 65 73 74 75 78 80 82 83 85 87 89 89 91 93 95 95 96 99 99 103 108 114 120 120 119 116 117 120 120 121 126 131 134 139 147 149 155 160 160 160 160
28 38 50 63 72 81 85 86 87 88 90 93 93 94 96 97 96 97 98 102 107 111 114 115 115 120 125 124 124 124 127 131 137 138 142 147 150 146 146 147 148 149 151